Pampa, TX

2:10 AM CDT on May 22, 2018 (GMT -0500)
Perry Lefors

Weather History for KPPA - November, 2013

Change the Weather History Date:

Sunday, November 17, 2013

  Actual Average Record
Temperature  
Mean Temperature 54 °F -  
Max Temperature 68 °F 58 °F 84 °F (2017)
Min Temperature 37 °F 32 °F 7 °F (2014)
Degree Days  
Heating Degree Days 12    
Growing Degree Days 4 (Base 50)    
Moisture  
Dew Point 25 °F    
Average Humidity 31    
Maximum Humidity 50    
Minimum Humidity 19    
Precipitation  
Precipitation 0.00 in - - ()
Sea Level Pressure  
Sea Level Pressure 29.86 in    
Wind  
Wind Speed 18 mph (NNW)    
Max Wind Speed 32 mph    
Max Gust Speed 45 mph    
Visibility 10 miles    
Events      
Averages and records for this station are not official NWS values.
T = Trace of Precipitation, MM = Missing Value Source: NWS Daily Summary

Daily Weather History Graph

Daily Weather History Graph

Search for Another Location

Airport or City:

Astronomy

Nov. 17, 2013 Rise Set
Actual Time 7:21 AM CST 5:35 PM CST
Civil Twilight 6:54 AM CST 6:03 PM CST
Nautical Twilight 6:23 AM CST 6:33 PM CST
Astronomical Twilight 5:53 AM CST 7:04 PM CST
Moon 5:54 PM CST (11/17) 7:18 AM CST (11/17)
Length of Visible Light 11h 08m
Length of Day
10h 13m
Full, 100% of the Moon is Illuminated
Nov 17
Full
Nov 25
Last Quarter
Dec 2
New
Dec 9
First Quarter
Dec 17
Full

Hourly Weather History & Observations

Time (CST) Temp. Windchill Dew Point Humidity Pressure Visibility Wind Dir Wind Speed Gust Speed Precip Events Conditions
12:15 AM 61.7 °F - 28.9 °F 29% 29.58 in 10.0 mi WSW 28.8 mph 38.0 mph N/A   Clear
12:35 AM 60.1 °F - 28.9 °F 31% 29.58 in 10.0 mi WSW 26.5 mph 34.5 mph N/A   Clear
12:55 AM 58.5 °F - 28.8 °F 32% 29.58 in 10.0 mi WSW 24.2 mph 31.1 mph N/A   Clear
1:15 AM 58.3 °F - 28.4 °F 32% 29.59 in 10.0 mi WSW 24.2 mph 31.1 mph N/A   Clear
1:35 AM 59.0 °F - 27.7 °F 30% 29.59 in 10.0 mi West 27.6 mph 33.4 mph N/A   Clear
1:55 AM 62.6 °F - 26.1 °F 25% 29.60 in 10.0 mi West 29.9 mph 41.4 mph N/A   Clear
2:15 AM 62.4 °F - 25.5 °F 25% 29.59 in 10.0 mi WSW 32.2 mph 42.6 mph N/A   Clear
2:35 AM 62.1 °F - 25.3 °F 25% 29.59 in 10.0 mi WSW 29.9 mph 44.9 mph N/A   Clear
2:55 AM 61.7 °F - 24.6 °F 24% 29.60 in 10.0 mi WSW 31.1 mph 41.4 mph N/A   Clear
3:15 AM 60.8 °F - 24.6 °F 25% 29.62 in 10.0 mi West 28.8 mph 40.3 mph N/A   Clear
3:35 AM 59.5 °F - 24.8 °F 26% 29.62 in 10.0 mi WSW 26.5 mph 38.0 mph N/A   Clear
3:55 AM 58.5 °F - 24.6 °F 27% 29.64 in 10.0 mi West 23.0 mph 32.2 mph N/A   Clear
4:15 AM 57.2 °F - 24.8 °F 29% 29.64 in 10.0 mi West 21.9 mph 27.6 mph N/A   Clear
4:35 AM 57.2 °F - 23.9 °F 28% 29.65 in 10.0 mi West 24.2 mph 31.1 mph N/A   Clear
4:55 AM 56.7 °F - 23.5 °F 28% 29.66 in 10.0 mi West 19.6 mph 29.9 mph N/A   Clear
5:15 AM 55.4 °F - 23.4 °F 29% 29.67 in 10.0 mi West 16.1 mph 21.9 mph N/A   Clear
5:35 AM 54.5 °F - 23.0 °F 29% 29.68 in 10.0 mi West 16.1 mph - N/A   Clear
5:55 AM 54.1 °F - 23.2 °F 30% 29.69 in 10.0 mi West 15.0 mph 20.7 mph N/A   Clear
6:15 AM 54.0 °F - 23.4 °F 30% 29.70 in 10.0 mi West 15.0 mph 19.6 mph N/A   Clear
6:35 AM 53.1 °F - 23.4 °F 32% 29.72 in 10.0 mi West 12.7 mph - N/A   Clear
6:55 AM 51.8 °F - 23.5 °F 33% 29.74 in 10.0 mi NNW 10.4 mph - N/A   Clear
7:15 AM 54.1 °F - 24.3 °F 31% 29.76 in 10.0 mi NW 11.5 mph 26.5 mph N/A   Clear
7:35 AM 50.0 °F - 24.4 °F 37% 29.78 in 10.0 mi NNW 5.8 mph - N/A   Clear
7:55 AM 48.2 °F - 25.0 °F 40% 29.79 in 10.0 mi North 5.8 mph - N/A   Clear
8:15 AM 49.3 °F - 26.2 °F 41% 29.80 in 10.0 mi NNW 5.8 mph - N/A   Clear
8:35 AM 52.7 °F - 27.9 °F 38% 29.81 in 10.0 mi NNW 4.6 mph - N/A   Clear
8:55 AM 55.0 °F - 27.1 °F 34% 29.83 in 10.0 mi NW 4.6 mph - N/A   Clear
9:15 AM 56.5 °F - 27.1 °F 32% 29.85 in 10.0 mi NW 8.1 mph - N/A   Clear
9:35 AM 57.2 °F - 26.8 °F 31% 29.86 in 10.0 mi NW 8.1 mph - N/A   Clear
9:55 AM 58.3 °F - 26.6 °F 30% 29.86 in 10.0 mi NNW 5.8 mph - N/A   Clear
10:15 AM 59.0 °F - 26.6 °F 29% 29.88 in 10.0 mi NNW 8.1 mph - N/A   Clear
10:35 AM 60.1 °F - 26.6 °F 28% 29.89 in 10.0 mi NW 6.9 mph - N/A   Clear
10:55 AM 60.6 °F - 26.6 °F 27% 29.90 in 10.0 mi NNW 6.9 mph - N/A   Clear
11:15 AM 61.5 °F - 26.8 °F 27% 29.90 in 10.0 mi NW 6.9 mph - N/A   Clear
11:35 AM 62.2 °F - 26.6 °F 26% 29.91 in 10.0 mi WNW 9.2 mph - N/A   Clear
11:55 AM 62.8 °F - 26.8 °F 26% 29.91 in 10.0 mi NW 8.1 mph - N/A   Clear
12:15 PM 63.7 °F - 26.8 °F 25% 29.91 in 10.0 mi NW 8.1 mph - N/A   Clear
12:35 PM 65.3 °F - 26.4 °F 23% 29.90 in 10.0 mi WNW 9.2 mph - N/A   Clear
12:55 PM 66.6 °F - 26.4 °F 22% 29.90 in 10.0 mi NW 12.7 mph - N/A   Clear
1:15 PM 67.5 °F - 26.4 °F 21% 29.90 in 10.0 mi NNW 9.2 mph - N/A   Clear
1:35 PM 67.3 °F - 26.4 °F 22% 29.90 in 10.0 mi NW 9.2 mph 16.1 mph N/A   Clear
1:55 PM 68.2 °F - 26.1 °F 21% 29.91 in 10.0 mi NW 9.2 mph - N/A   Clear
2:15 PM 68.9 °F - 25.9 °F 20% 29.91 in 10.0 mi NNW 11.5 mph - N/A   Clear
2:35 PM 68.5 °F - 24.4 °F 19% 29.91 in 10.0 mi NW 6.9 mph - N/A   Clear
2:55 PM 68.9 °F - 24.6 °F 19% 29.92 in 10.0 mi NW 10.4 mph - N/A   Clear
3:15 PM 68.4 °F - 24.8 °F 19% 29.92 in 10.0 mi North 6.9 mph 17.3 mph N/A   Clear
3:35 PM 68.7 °F - 24.8 °F 19% 29.92 in 10.0 mi North 11.5 mph - N/A   Clear
3:55 PM 68.0 °F - 23.9 °F 19% 29.92 in 10.0 mi North 8.1 mph - N/A   Clear
4:15 PM 67.6 °F - 24.1 °F 19% 29.93 in 10.0 mi North 8.1 mph - N/A   Clear
4:35 PM 67.1 °F - 23.0 °F 19% 29.94 in 10.0 mi North 6.9 mph - N/A   Clear
4:55 PM 65.5 °F - 25.9 °F 22% 29.95 in 10.0 mi ENE 10.4 mph - N/A   Clear
5:15 PM 62.2 °F - 27.3 °F 27% 29.96 in 10.0 mi ENE 9.2 mph - N/A   Clear
5:35 PM 58.1 °F - 27.0 °F 30% 29.97 in 10.0 mi East 8.1 mph - N/A   Clear
5:55 PM 55.4 °F - 26.6 °F 33% 29.99 in 10.0 mi East 9.2 mph - N/A   Clear
6:15 PM 51.8 °F - 26.6 °F 38% 30.00 in 10.0 mi East 10.4 mph - N/A   Clear
6:35 PM 50.2 °F - 27.1 °F 41% 30.01 in 10.0 mi East 9.2 mph - N/A   Clear
6:55 PM 50.0 °F - 26.6 °F 40% 30.02 in 10.0 mi East 10.4 mph - N/A   Clear
7:15 PM 48.2 °F - 26.6 °F 43% 30.03 in 10.0 mi East 11.5 mph - N/A   Clear
7:35 PM 47.7 °F - 25.7 °F 42% 30.05 in 10.0 mi East 10.4 mph - N/A   Clear
7:55 PM 46.4 °F 41.9 °F 25.7 °F 44% 30.05 in 10.0 mi East 9.2 mph - N/A   Clear
8:15 PM 45.5 °F 40.3 °F 25.7 °F 46% 30.07 in 10.0 mi East 10.4 mph - N/A   Clear
8:35 PM 44.4 °F 39.0 °F 25.7 °F 48% 30.07 in 10.0 mi East 10.4 mph - N/A   Clear
8:55 PM 43.0 °F 37.2 °F 25.5 °F 50% 30.08 in 10.0 mi East 10.4 mph - N/A   Clear
9:15 PM 43.3 °F 36.8 °F 25.5 °F 49% 30.09 in 10.0 mi East 12.7 mph - N/A   Clear
9:35 PM 43.9 °F 37.9 °F 24.8 °F 47% 30.10 in 10.0 mi East 11.5 mph - N/A   Clear
9:55 PM 43.3 °F 36.8 °F 22.8 °F 44% 30.11 in 10.0 mi East 12.7 mph - N/A   Clear
10:15 PM 43.0 °F 36.8 °F 20.7 °F 41% 30.12 in 10.0 mi East 11.5 mph - N/A   Clear
10:35 PM 41.9 °F 35.4 °F 20.3 °F 42% 30.13 in 10.0 mi East 11.5 mph - N/A   Clear
10:55 PM 41.0 °F 34.7 °F 19.4 °F 42% 30.13 in 10.0 mi East 10.4 mph - N/A   Clear
11:15 PM 40.6 °F 33.8 °F 18.1 °F 40% 30.14 in 10.0 mi East 11.5 mph - N/A   Clear
11:35 PM 39.0 °F 32.3 °F 17.6 °F 42% 30.14 in 10.0 mi East 10.4 mph - N/A   Clear
11:55 PM 37.0 °F 29.8 °F 17.4 °F 45% 30.14 in 10.0 mi East 10.4 mph - N/A   Clear